TimeCST,TemperatureF,Dew PointF,Humidity,Sea Level PressureIn,VisibilityMPH,Wind Direction,Wind SpeedMPH,Gust SpeedMPH,PrecipitationIn,Events,Conditions,WindDirDegrees,DateUTC
12:58 AM,25.5,18.0,73,30.41,10.0,North,4.6,-,N/A,,Clear,10,2013-03-06 06:58:00
1:58 AM,21.2,17.6,86,30.42,10.0,NNE,5.8,-,N/A,,Clear,30,2013-03-06 07:58:00
2:58 AM,22.6,18.1,83,30.42,10.0,North,1.2,-,N/A,,Clear,350,2013-03-06 08:58:00
3:58 AM,21.9,18.3,86,30.43,10.0,SSW,4.6,-,N/A,,Clear,200,2013-03-06 09:58:00
4:58 AM,18.1,17.2,96,30.42,10.0,ENE,2.3,-,N/A,,Clear,60,2013-03-06 10:58:00
5:58 AM,17.6,17.4,99,30.41,10.0,NNE,4.6,-,N/A,,Clear,30,2013-03-06 11:58:00
6:58 AM,15.3,15.1,99,30.40,10.0,NE,3.5,-,N/A,,Clear,50,2013-03-06 12:58:00
7:58 AM,21.6,20.5,96,30.41,10.0,ENE,5.8,-,N/A,,Clear,60,2013-03-06 13:58:00
8:58 AM,24.8,21.0,86,30.43,10.0,NE,6.9,-,N/A,,Partly Cloudy,40,2013-03-06 14:58:00
9:58 AM,28.0,21.0,75,30.44,10.0,Variable,1.2,-,N/A,,Clear,0,2013-03-06 15:58:00
10:58 AM,31.6,20.7,64,30.43,10.0,Variable,1.2,-,N/A,,Clear,0,2013-03-06 16:58:00
11:58 AM,36.0,19.4,51,30.41,10.0,Variable,2.3,-,N/A,,Clear,0,2013-03-06 17:58:00
12:58 PM,39.4,19.2,44,30.37,10.0,SE,6.9,-,N/A,,Clear,130,2013-03-06 18:58:00
1:58 PM,42.1,18.7,39,30.32,10.0,ESE,4.6,-,N/A,,Clear,120,2013-03-06 19:58:00
2:58 PM,44.2,19.0,37,30.30,10.0,SE,6.9,-,N/A,,Clear,140,2013-03-06 20:58:00
3:58 PM,44.8,18.7,35,30.27,10.0,SSE,9.2,-,N/A,,Clear,150,2013-03-06 21:58:00
4:58 PM,42.4,19.4,40,30.25,10.0,SE,10.4,-,N/A,,Clear,140,2013-03-06 22:58:00
5:58 PM,40.3,22.6,49,30.24,10.0,SE,12.7,-,N/A,,Clear,130,2013-03-06 23:58:00
6:58 PM,36.3,21.9,56,30.24,10.0,Variable,5.8,-,N/A,,Clear,0,2013-03-07 00:58:00
7:58 PM,33.4,23.0,66,30.24,10.0,ESE,6.9,-,N/A,,Clear,110,2013-03-07 01:58:00
8:58 PM,31.6,22.6,69,30.23,10.0,East,4.6,-,N/A,,Clear,90,2013-03-07 02:58:00
9:58 PM,28.6,23.9,83,30.22,10.0,ENE,5.8,-,N/A,,Clear,70,2013-03-07 03:58:00
10:58 PM,26.1,24.6,94,30.22,10.0,ENE,5.8,-,N/A,,Clear,60,2013-03-07 04:58:00
11:58 PM,28.9,25.3,86,30.21,10.0,ENE,2.3,-,N/A,,Clear,60,2013-03-07 05:58:00